• In Lithuania
  • List of Countries
  • For 7 days
  • Water Temperature
  • Satellite Maps
  • Weather Map
  • Weather Widgets
  • user-avatar
    Login

    Hourly Weather Zimnodol

    Today, 23 October, Tuesday

    Time Temperature Precipitation Wind Pressure Humidity
    00:00 +5°C° 0 mm 3 mps 744 mmHg 88%
    01:00 +5°C° 0 mm 2 mps 744 mmHg 90%
    02:00 +3°C° 0 mm 3 mps 743 mmHg 89%
    03:00 +3°C° 0 mm 3 mps 743 mmHg 88%
    04:00 +3°C° 0 mm 3 mps 742 mmHg 86%
    05:00 +3°C° 0 mm 3 mps 742 mmHg 84%
    06:00 +3°C° 0 mm 4 mps 741 mmHg 82%
    07:00 +4°C° 0 mm 4 mps 740 mmHg 81%
    08:00 +5°C° 0 mm 5 mps 740 mmHg 74%
    09:00 +5°C° 0 mm 6 mps 739 mmHg 68%
    10:00 +8°C° 0 mm 7 mps 738 mmHg 61%
    11:00 +7°C° 0.5 mm 8 mps 737 mmHg 63%
    12:00 +7°C° 0.5 mm 8 mps 736 mmHg 64%
    13:00 +6°C° 0.5 mm 9 mps 736 mmHg 66%
    14:00 +7°C° 0.3 mm 9 mps 735 mmHg 68%
    15:00 +7°C° 0.3 mm 9 mps 734 mmHg 71%
    16:00 +7°C° 0.3 mm 10 mps 733 mmHg 74%
    17:00 +7°C° 0.3 mm 10 mps 733 mmHg 75%
    18:00 +8°C° 0.3 mm 10 mps 732 mmHg 76%
    19:00 +8°C° 0.3 mm 10 mps 731 mmHg 77%
    20:00 +8°C° 0.5 mm 10 mps 731 mmHg 77%
    21:00 +9°C° 0.5 mm 10 mps 730 mmHg 78%
    22:00 +9°C° 0.5 mm 11 mps 729 mmHg 78%
    23:00 +9°C° 0.7 mm 11 mps 728 mmHg 79%

    Tomorrow, 24 October, Wednesday

    Time Temperature Precipitation Wind Pressure Humidity
    00:00 +9°C° 0.7 mm 11 mps 728 mmHg 79%
    01:00 +9°C° 0.7 mm 11 mps 727 mmHg 80%
    02:00 +9°C° 1.1 mm 11 mps 727 mmHg 79%
    03:00 +9°C° 1.1 mm 11 mps 726 mmHg 79%
    04:00 +9°C° 1.1 mm 11 mps 726 mmHg 78%
    05:00 +7°C° 0.4 mm 11 mps 727 mmHg 75%
    06:00 +6°C° 0.4 mm 10 mps 728 mmHg 72%
    07:00 +5°C° 0.4 mm 10 mps 729 mmHg 68%
    08:00 +5°C° 0.1 mm 10 mps 729 mmHg 66%
    09:00 +5°C° 0.1 mm 10 mps 730 mmHg 63%
    10:00 +5°C° 0.1 mm 10 mps 730 mmHg 60%
    11:00 +4°C° 0.2 mm 11 mps 731 mmHg 58%
    12:00 +6°C° 0.2 mm 11 mps 731 mmHg 56%
    13:00 +6°C° 0.2 mm 11 mps 732 mmHg 54%
    14:00 +6°C° 0 mm 10 mps 733 mmHg 53%
    15:00 +5°C° 0 mm 9 mps 733 mmHg 51%
    16:00 +5°C° 0 mm 8 mps 734 mmHg 50%
    17:00 +5°C° 0 mm 7 mps 734 mmHg 54%
    18:00 +4°C° 0 mm 7 mps 735 mmHg 57%
    19:00 +3°C° 0 mm 6 mps 736 mmHg 60%
    20:00 +3°C° 0 mm 6 mps 736 mmHg 62%
    21:00 +3°C° 0 mm 6 mps 736 mmHg 63%
    22:00 +2°C° 0 mm 6 mps 737 mmHg 65%
    23:00 +2°C° 0 mm 5 mps 737 mmHg 68%

    Day after tomorrow, 25 October, Thursday

    Time Temperature Precipitation Wind Pressure Humidity
    00:00 +2°C° 0 mm 5 mps 737 mmHg 71%
    01:00 +1°C° 0 mm 5 mps 737 mmHg 73%
    02:00 +1°C° 0 mm 4 mps 736 mmHg 75%
    03:00 +3°C° 0 mm 4 mps 736 mmHg 77%
    04:00 +3°C° 0 mm 4 mps 735 mmHg 79%
    05:00 +3°C° 0.4 mm 5 mps 734 mmHg 81%
    06:00 +5°C° 0.4 mm 5 mps 734 mmHg 83%
    07:00 +5°C° 0.4 mm 5 mps 733 mmHg 85%
    08:00 +7°C° 0.2 mm 6 mps 733 mmHg 82%
    09:00 +9°C° 0.2 mm 8 mps 732 mmHg 79%
    10:00 +10°C° 0.2 mm 9 mps 732 mmHg 77%
    11:00 +10°C° 0.1 mm 9 mps 732 mmHg 75%
    12:00 +10°C° 0.1 mm 9 mps 731 mmHg 74%
    13:00 +10°C° 0.1 mm 9 mps 731 mmHg 73%
    14:00 +10°C° 0.1 mm 9 mps 731 mmHg 74%
    15:00 +10°C° 0.1 mm 8 mps 732 mmHg 75%
    16:00 +9°C° 0.1 mm 7 mps 732 mmHg 76%
    17:00 +9°C° 0.2 mm 7 mps 732 mmHg 78%
    18:00 +8°C° 0.2 mm 6 mps 732 mmHg 79%
    19:00 +8°C° 0.2 mm 5 mps 733 mmHg 81%
    20:00 +8°C° 0.1 mm 5 mps 733 mmHg 81%
    21:00 +7°C° 0.1 mm 4 mps 733 mmHg 81%
    22:00 +7°C° 0.1 mm 4 mps 734 mmHg 81%
    23:00 +6°C° 0 mm 4 mps 734 mmHg 83%

    26 October, Friday

    Time Temperature Precipitation Wind Pressure Humidity
    00:00 +7°C° 0 mm 3 mps 734 mmHg 84%
    01:00 +5°C° 0 mm 3 mps 734 mmHg 86%
    02:00 +5°C° 0 mm 3 mps 734 mmHg 86%
    03:00 +5°C° 0 mm 3 mps 733 mmHg 87%
    04:00 +6°C° 0 mm 2 mps 733 mmHg 87%
    05:00 +7°C° 0 mm 2 mps 733 mmHg 88%
    06:00 +7°C° 0 mm 2 mps 733 mmHg 89%
    07:00 +7°C° 0 mm 2 mps 733 mmHg 90%
    08:00 +8°C° 0 mm 2 mps 733 mmHg 85%
    09:00 +10°C° 0 mm 3 mps 733 mmHg 80%
    10:00 +11°C° 0 mm 3 mps 733 mmHg 75%
    11:00 +12°C° 0 mm 3 mps 732 mmHg 71%
    12:00 +12°C° 0 mm 3 mps 732 mmHg 68%
    13:00 +13°C° 0 mm 4 mps 731 mmHg 65%
    14:00 +13°C° 0 mm 3 mps 731 mmHg 67%
    15:00 +12°C° 0 mm 3 mps 730 mmHg 69%
    16:00 +12°C° 0 mm 3 mps 730 mmHg 72%
    17:00 +11°C° 0 mm 3 mps 729 mmHg 73%
    18:00 +10°C° 0 mm 4 mps 729 mmHg 75%
    19:00 +10°C° 0 mm 4 mps 729 mmHg 77%
    20:00 +10°C° 0 mm 4 mps 728 mmHg 78%
    21:00 +10°C° 0 mm 4 mps 728 mmHg 78%
    22:00 +10°C° 0 mm 4 mps 728 mmHg 78%
    23:00 +10°C° 0 mm 4 mps 728 mmHg 79%

    27 October, Saturday

    Time Temperature Precipitation Wind Pressure Humidity
    00:00 +10°C° 0 mm 3 mps 727 mmHg 80%
    01:00 +9°C° 0 mm 3 mps 727 mmHg 82%
    02:00 +9°C° 0 mm 3 mps 727 mmHg 83%
    03:00 +9°C° 0 mm 3 mps 727 mmHg 84%
    04:00 +8°C° 0 mm 3 mps 727 mmHg 85%
    05:00 +8°C° 0.1 mm 3 mps 727 mmHg 85%
    06:00 +8°C° 0.1 mm 3 mps 727 mmHg 85%
    07:00 +8°C° 0.1 mm 3 mps 727 mmHg 85%
    08:00 +8°C° 0.3 mm 3 mps 727 mmHg 82%
    09:00 +8°C° 0.3 mm 3 mps 728 mmHg 79%
    10:00 +8°C° 0.3 mm 3 mps 728 mmHg 76%
    11:00 +8°C° 0.2 mm 3 mps 728 mmHg 73%
    12:00 +8°C° 0.2 mm 3 mps 728 mmHg 70%
    13:00 +9°C° 0.2 mm 3 mps 728 mmHg 67%
    14:00 +8°C° 0 mm 3 mps 728 mmHg 67%
    15:00 +8°C° 0 mm 2 mps 728 mmHg 68%
    16:00 +8°C° 0 mm 2 mps 728 mmHg 68%
    17:00 +7°C° 0 mm 2 mps 728 mmHg 70%
    18:00 +8°C° 0 mm 1 mps 728 mmHg 71%
    19:00 +7°C° 0 mm 1 mps 728 mmHg 73%
    20:00 +7°C° 0.1 mm 1 mps 727 mmHg 74%
    21:00 +7°C° 0.1 mm 1 mps 727 mmHg 75%
    22:00 +7°C° 0.1 mm 1 mps 727 mmHg 76%
    23:00 +5°C° 0.2 mm 2 mps 727 mmHg 77%

    28 October, Sunday

    Time Temperature Precipitation Wind Pressure Humidity
    00:00 +5°C° 0.2 mm 2 mps 727 mmHg 78%
    01:00 +5°C° 0.2 mm 2 mps 727 mmHg 80%
    02:00 +5°C° 0.3 mm 2 mps 726 mmHg 80%
    03:00 +4°C° 0.3 mm 2 mps 726 mmHg 81%
    04:00 +4°C° 0.3 mm 2 mps 726 mmHg 81%
    05:00 +4°C° 0.2 mm 2 mps 726 mmHg 82%
    06:00 +4°C° 0.2 mm 2 mps 726 mmHg 82%
    07:00 +5°C° 0.2 mm 1 mps 726 mmHg 82%
    08:00 +4°C° 0.2 mm 2 mps 727 mmHg 79%
    09:00 +5°C° 0.2 mm 2 mps 727 mmHg 75%
    10:00 +4°C° 0.2 mm 3 mps 728 mmHg 71%
    11:00 +5°C° 0.1 mm 3 mps 728 mmHg 67%
    12:00 +5°C° 0.1 mm 3 mps 729 mmHg 63%
    13:00 +7°C° 0.1 mm 3 mps 729 mmHg 59%
    14:00 +6°C° 0 mm 2 mps 730 mmHg 62%
    15:00 +6°C° 0 mm 2 mps 730 mmHg 65%
    16:00 +6°C° 0 mm 2 mps 731 mmHg 67%
    17:00 +5°C° 0 mm 2 mps 731 mmHg 72%
    18:00 +4°C° 0 mm 2 mps 732 mmHg 77%
    19:00 +2°C° 0 mm 3 mps 732 mmHg 82%
    20:00 +3°C° 0 mm 2 mps 733 mmHg 83%
    21:00 +2°C° 0 mm 2 mps 733 mmHg 85%
    22:00 +2°C° 0 mm 2 mps 734 mmHg 87%
    23:00 +2°C° 0 mm 2 mps 734 mmHg 87%

    29 October, Monday

    Time Temperature Precipitation Wind Pressure Humidity
    00:00 +1°C° 0 mm 2 mps 734 mmHg 87%
    01:00 +1°C° 0 mm 2 mps 734 mmHg 87%
    02:00 +1°C° 0 mm 2 mps 734 mmHg 87%
    03:00 +1°C° 0 mm 2 mps 735 mmHg 86%
    04:00 +1°C° 0 mm 2 mps 735 mmHg 86%
    05:00 +2°C° 0 mm 1 mps 735 mmHg 85%
    06:00 +2°C° 0 mm 1 mps 735 mmHg 85%
    07:00 +2°C° 0 mm 1 mps 735 mmHg 85%
    08:00 +3°C° 0 mm 1 mps 735 mmHg 79%
    09:00 +4°C° 0 mm 1 mps 736 mmHg 73%
    10:00 +6°C° 0 mm 1 mps 736 mmHg 66%
    11:00 +6°C° 0 mm 1 mps 736 mmHg 65%
    12:00 +6°C° 0 mm 1 mps 735 mmHg 64%
    13:00 +6°C° 0 mm 2 mps 735 mmHg 62%
    14:00 +5°C° 0 mm 2 mps 735 mmHg 65%
    15:00 +5°C° 0 mm 2 mps 735 mmHg 68%
    16:00 +5°C° 0 mm 2 mps 734 mmHg 71%
    17:00 +4°C° 0 mm 2 mps 734 mmHg 73%
    18:00 +4°C° 0 mm 2 mps 734 mmHg 74%
    19:00 +3°C° 0 mm 3 mps 734 mmHg 76%
    20:00 +3°C° 0.2 mm 3 mps 734 mmHg 77%
    21:00 +2°C° 0.2 mm 3 mps 734 mmHg 79%
    22:00 +2°C° 0.2 mm 3 mps 733 mmHg 80%
    23:00 +1°C° 0.1 mm 4 mps 733 mmHg 81%
    Show more